Kirksville, MO

3:56 AM CST on February 20, 2018 (GMT -0600)
Kirksville Regional

Weather History for KIRK - October, 2010

Change the Weather History Date:

Wednesday, October 13, 2010

  Actual Average Record
Temperature  
Mean Temperature 54 °F 54 °F  
Max Temperature 67 °F 65 °F 88 °F (1975)
Min Temperature 41 °F 43 °F 25 °F (1979)
Degree Days  
Heating Degree Days 11 11  
Month to date heating degree days 94 124  
Since 1 July heating degree days 160 231  
Cooling Degree Days 0 0  
Month to date cooling degree days 4 10  
Year to date cooling degree days 1142 937  
Growing Degree Days 4 (Base 50)    
Moisture  
Dew Point 38 °F    
Average Humidity 54    
Maximum Humidity 82    
Minimum Humidity 26    
Precipitation  
Precipitation 0.00 in 0.12 in 2.13 in (2012)
Month to date precipitation T 1.42  
Year to date precipitation 49.28 32.94  
Sea Level Pressure  
Sea Level Pressure 30.22 in    
Wind  
Wind Speed 9 mph (NNW)    
Max Wind Speed 21 mph    
Max Gust Speed 28 mph    
Visibility 10 miles    
Events      
T = Trace of Precipitation, MM = Missing Value Source: NWS Daily Summary

Daily Weather History Graph

Daily Weather History Graph

Search for Another Location

Airport or City:

Trip Planner

Search our weather history database for the weather conditions in past years. The results will help you decide how hot, cold, wet, or windy it might be!

Date:

Astronomy

Oct. 13, 2010 Rise Set
Actual Time 7:18 AM CDT 6:33 PM CDT
Civil Twilight 6:51 AM CDT 7:00 PM CDT
Nautical Twilight 6:19 AM CDT 7:32 PM CDT
Astronomical Twilight 5:48 AM CDT 8:03 PM CDT
Moon 1:39 PM CDT (10/13) 11:12 PM CDT (10/13)
Length of Visible Light 12h 09m
Length of Day
11h 14m
Waxing Crescent, 38% of the Moon is Illuminated
Oct 13
Waxing Crescent
Oct 14
First Quarter
Oct 22
Full
Oct 30
Last Quarter
Nov 5
New

Hourly Weather History & Observations

Time (CDT) Temp. Windchill Dew Point Humidity Pressure Visibility Wind Dir Wind Speed Gust Speed Precip Events Conditions
12:55 AM 62.1 °F - 48.9 °F 62% 30.10 in 10.0 mi North 15.0 mph 21.9 mph N/A   Partly Cloudy
1:55 AM 60.1 °F - 46.9 °F 62% 30.12 in 10.0 mi North 16.1 mph 25.3 mph N/A   Mostly Cloudy
2:55 AM 57.9 °F - 45.0 °F 62% 30.12 in 10.0 mi North 15.0 mph - N/A   Mostly Cloudy
3:55 AM 57.0 °F - 43.0 °F 59% 30.12 in 10.0 mi North 13.8 mph - N/A   Partly Cloudy
4:55 AM 55.0 °F - 39.9 °F 57% 30.14 in 10.0 mi North 11.5 mph - N/A   Partly Cloudy
5:55 AM 54.0 °F - 37.9 °F 55% 30.16 in 10.0 mi NNW 10.4 mph 17.3 mph N/A   Clear
6:55 AM 51.8 °F - 37.4 °F 58% 30.18 in 10.0 mi NNW 8.1 mph - N/A   Clear
7:55 AM 51.1 °F - 37.9 °F 61% 30.22 in 10.0 mi NNW 9.2 mph - N/A   Clear
8:55 AM 53.1 °F - 39.0 °F 59% 30.24 in 10.0 mi NNW 9.2 mph - N/A   Clear
9:55 AM 55.0 °F - 39.0 °F 55% 30.25 in 10.0 mi NNW 9.2 mph - N/A   Clear
10:55 AM 59.0 °F - 39.0 °F 48% 30.26 in 10.0 mi North 10.4 mph - N/A   Clear
11:55 AM 63.0 °F - 36.0 °F 37% 30.26 in 10.0 mi North 12.7 mph 25.3 mph N/A   Clear
12:55 PM 64.9 °F - 36.0 °F 34% 30.25 in 10.0 mi North 11.5 mph 26.5 mph N/A   Clear
1:55 PM 66.0 °F - 32.0 °F 28% 30.24 in 10.0 mi North 17.3 mph 23.0 mph N/A   Clear
2:55 PM 66.0 °F - 33.1 °F 29% 30.23 in 10.0 mi North 11.5 mph 19.6 mph N/A   Clear
3:55 PM 66.0 °F - 30.9 °F 27% 30.23 in 10.0 mi NW 16.1 mph 23.0 mph N/A   Clear
4:55 PM 64.9 °F - 30.0 °F 27% 30.23 in 10.0 mi NNW 10.4 mph 19.6 mph N/A   Clear
5:55 PM 62.1 °F - 30.0 °F 30% 30.24 in 10.0 mi NNW 8.1 mph - N/A   Clear
6:55 PM 53.1 °F - 34.0 °F 48% 30.25 in 10.0 mi Calm Calm - N/A   Clear
7:55 PM 46.9 °F - 39.0 °F 74% 30.26 in 10.0 mi West 3.5 mph - N/A   Clear
8:55 PM 44.1 °F - 37.9 °F 79% 30.26 in 10.0 mi Calm Calm - N/A   Clear
9:55 PM 44.1 °F 42.5 °F 37.9 °F 79% 30.27 in 10.0 mi West 3.5 mph - N/A   Clear
10:55 PM 43.0 °F 40.3 °F 37.0 °F 80% 30.27 in 10.0 mi West 4.6 mph - N/A   Clear
11:55 PM 44.1 °F 41.5 °F 36.0 °F 73% 30.27 in 10.0 mi WNW 4.6 mph - N/A   Clear